Weather History for Lebanon, NH

Change the Weather History Date:

Wednesday, October 31, 2012

  Actual Average Record
Temperature  
Mean Temperature 50 °F -  
Max Temperature 57 °F 52 °F 71 °F (1946)
Min Temperature 43 °F 31 °F 17 °F (2001)
Degree Days  
Heating Degree Days 15    
Moisture  
Dew Point 47 °F    
Average Humidity 82    
Maximum Humidity 94    
Minimum Humidity 61    
Precipitation  
Precipitation 0.10 in - - ()
Sea Level Pressure  
Sea Level Pressure 29.47 in    
Wind  
Wind Speed 3 mph (South)    
Max Wind Speed 15 mph    
Max Gust Speed 26 mph    
Visibility 8 miles    
Events Rain    
Averages and records for this station are not official NWS values.
T = Trace of Precipitation, MM = Missing Value Source: NWS Daily Summary

Daily Weather History Graph

Daily Weather History Graph

Search for Another Location

Airport:

Trip Planner

Search our weather history database for the weather conditions in past years. The results will help you decide how hot, cold, wet, or windy it might be!

Date:

Astronomy

Oct. 31, 2012 Rise Set
Actual Time 7:24 AM EDT 5:40 PM EDT
Civil Twilight 6:54 AM EDT 6:10 PM EDT
Nautical Twilight 6:20 AM EDT 6:44 PM EDT
Astronomical Twilight 5:47 AM EDT 7:17 PM EDT
Moon 6:46 PM EDT (10/31) 9:06 AM EDT (10/31)
Length of Visible Light 11h 16m
Length of Day
10h 16m
Full, 97% of the Moon is Illuminated
Oct 31
Full
Nov 6
Last Quarter
Nov 13
New
Nov 20
First Quarter
Nov 28
Full

Hourly Weather History & Observations

Time (EDT) Temp. Windchill Dew Point Humidity Pressure Visibility Wind Dir Wind Speed Gust Speed Precip Events Conditions
12:53 AM 54.0 °F - 50.0 °F 86% 29.52 in 10.0 mi Calm Calm - N/A   Scattered Clouds
1:53 AM 51.1 °F - 48.9 °F 92% 29.49 in 6.0 mi Calm Calm - N/A   Scattered Clouds
2:53 AM 52.0 °F - 50.0 °F 93% 29.48 in 1.5 mi Calm Calm - N/A   Overcast
3:12 AM 53.6 °F - 50.0 °F 88% 29.49 in 4.0 mi NNE 3.5 mph - N/A   Overcast
3:53 AM 53.1 °F - 51.1 °F 93% 29.47 in 10.0 mi Calm Calm - N/A   Overcast
4:53 AM 52.0 °F - 48.9 °F 89% 29.46 in 10.0 mi Calm Calm - N/A   Mostly Cloudy
5:53 AM 52.0 °F - 50.0 °F 93% 29.44 in 10.0 mi Calm Calm - N/A   Overcast
6:44 AM 53.6 °F - 50.0 °F 88% 29.44 in 9.0 mi Calm Calm - N/A   Overcast
6:53 AM 53.1 °F - 50.0 °F 89% 29.42 in 7.0 mi Calm Calm - 0.00 in Rain Light Rain
7:14 AM 51.8 °F - 48.2 °F 88% 29.44 in 8.0 mi Calm Calm - 0.00 in   Overcast
7:37 AM 53.6 °F - 50.0 °F 88% 29.44 in 1.8 mi Calm Calm - 0.04 in Rain Light Rain
7:53 AM 53.1 °F - 51.1 °F 93% 29.42 in 3.0 mi Calm Calm - 0.07 in Rain Light Rain
8:04 AM 53.6 °F - 51.8 °F 94% 29.43 in 1.8 mi Calm Calm - 0.00 in Rain Light Rain
8:13 AM 53.6 °F - 51.8 °F 94% 29.43 in 0.8 mi NNW 3.5 mph - 0.00 in   Overcast
8:19 AM 53.6 °F - 51.8 °F 94% 29.43 in 3.0 mi NNW 3.5 mph - 0.00 in   Overcast
8:49 AM 57.2 °F - 53.6 °F 88% 29.43 in 10.0 mi SE 4.6 mph - 0.00 in   Scattered Clouds
8:53 AM 57.9 °F - 53.1 °F 84% 29.42 in 10.0 mi SE 4.6 mph - 0.00 in   Mostly Cloudy
9:02 AM 55.4 °F - 51.8 °F 88% 29.45 in 8.0 mi SSW 15.0 mph 26.5 mph 0.00 in Rain Light Rain
9:18 AM 53.6 °F - 48.2 °F 82% 29.46 in 3.0 mi SSW 12.7 mph 23.0 mph 0.02 in Rain Light Rain
9:53 AM 53.1 °F - 48.9 °F 86% 29.47 in 10.0 mi South 11.5 mph - 0.02 in   Overcast
10:11 AM 53.6 °F - 48.2 °F 82% 29.47 in 5.0 mi South 12.7 mph 19.6 mph 0.00 in Rain Light Rain
10:28 AM 51.8 °F - 48.2 °F 88% 29.48 in 10.0 mi South 12.7 mph 20.7 mph 0.00 in   Overcast
10:47 AM 51.8 °F - 46.4 °F 82% 29.49 in 10.0 mi South 10.4 mph - 0.00 in   Overcast
10:48 AM 51.8 °F - 46.4 °F 82% 29.49 in 10.0 mi South 10.4 mph - 0.00 in   Overcast
10:53 AM 52.0 °F - 46.9 °F 83% 29.49 in 10.0 mi South 11.5 mph - 0.00 in   Overcast
11:42 AM 51.8 °F - 44.6 °F 76% 29.49 in 10.0 mi South 9.2 mph - N/A   Overcast
11:53 AM 53.1 °F - 46.0 °F 77% 29.48 in 10.0 mi South 9.2 mph - 0.00 in Rain Light Rain
12:22 PM 51.8 °F - 46.4 °F 82% 29.49 in 10.0 mi SSW 5.8 mph - 0.01 in Rain Light Rain
12:53 PM 52.0 °F - 46.9 °F 83% 29.48 in 10.0 mi South 8.1 mph - 0.01 in   Overcast
1:53 PM 54.0 °F - 44.1 °F 69% 29.47 in 10.0 mi South 6.9 mph - N/A   Mostly Cloudy
2:32 PM 53.6 °F - 42.8 °F 67% 29.47 in 10.0 mi SSW 6.9 mph - N/A   Overcast
2:40 PM 53.6 °F - 42.8 °F 67% 29.47 in 10.0 mi South 4.6 mph - N/A   Overcast
2:53 PM 54.0 °F - 42.1 °F 64% 29.46 in 10.0 mi South 6.9 mph - N/A   Overcast
3:53 PM 53.1 °F - 39.9 °F 61% 29.47 in 10.0 mi SSW 6.9 mph - N/A   Overcast
4:53 PM 51.1 °F - 39.0 °F 63% 29.48 in 10.0 mi South 9.2 mph - N/A   Overcast
5:53 PM 50.0 °F - 39.9 °F 68% 29.48 in 10.0 mi South 5.8 mph - N/A   Overcast
6:53 PM 50.0 °F - 39.9 °F 68% 29.49 in 10.0 mi Calm Calm - N/A   Overcast
8:53 PM 46.9 °F - 39.0 °F 74% 29.49 in 10.0 mi South 8.1 mph - N/A   Clear
9:53 PM 45.0 °F - 39.0 °F 80% 29.51 in 10.0 mi Calm Calm - N/A   Clear
10:53 PM 43.0 °F - 39.0 °F 86% 29.52 in 10.0 mi Calm Calm - N/A   Mostly Cloudy
11:53 PM 43.0 °F 40.3 °F 39.0 °F 86% 29.50 in 10.0 mi South 4.6 mph - N/A   Overcast